User: anonymous
Location: Unspecified
(0.0000°N, 0.0000°E)
Time: 11:41:26
(UTC+00:00)
Language:

AGILE - Orbit

View from above orbital plane
View from above orbital plane
View from above satellite
View from above satellite

Ground track
Ground track

The orbit data is extracted from the following two-line orbital elements,

1 31135U 07013A   14260.16559995  .00008871  00000-0  34429-3 0   536
2 31135 002.4679 329.3517 0015799 290.3823 069.4214 15.20686884410022
Epoch (UTC): 17 September 2014 03:58:27
Eccentricity: 0.0015799
inclination: 2.4679°
perigee height: 493 km
apogee height: 514 km
right ascension of ascending node: 329.3517°
argument of perigee: 290.3823°
revolutions per day: 15.20686884
mean anomaly at epoch: 69.4214°
orbit number at epoch: 41002

The dashed part of the orbit path shows where the satellite is in the earth's shadow,  

DLR